[[{"header":{"parameterUnit":"m.s-1","parameterCategory":1,"la1":30.2991,"la2":30.254,"lo1":-89.0895,"lo2":-89.0444,"dy":0.0017,"dx":0.0017,"nx":28,"ny":28,"refTime":"2023-10-18T03:00:00:Z","depth":0,"parameterNumber":2,"parameterNumberName":"U-component_of_WINDS"},"data":[0,0,0,0,0,0,0,0,0,0,0,0,0,0,0,0,0,0,0,0,0,0,0,0,0,0,0,0,0,0,0,0,0,0,0,0,0,0,0,0,0,0,0,0,0,0,0,0,0,0,0,0,0,0,0,0,0,0,-2.4489,-2.4492,0,-2.475,-2.4753,-2.4756,-2.4845,-2.4844,-2.4843,-2.4842,-2.5107,-2.5114,-2.5122,0,0,0,0,0,0,0,0,0,0,0,0,0,-2.4069,-2.4076,-2.4489,-2.4492,-2.4496,-2.4749,-2.4753,-2.4756,-2.4845,-2.4844,-2.4843,-2.4842,-2.5104,-2.5113,-2.5123,0,0,0,0,0,0,0,0,0,0,0,0,0,-2.4282,-2.4078,-2.4489,-2.4571,-2.4581,-2.4748,-2.4753,-2.4757,-2.4846,-2.4844,-2.4842,-2.4841,-2.5101,-2.5113,-2.5124,-2.5229,0,0,-2.5161,-2.5166,0,0,0,0,0,0,0,0,-2.427,-2.4298,-2.4555,-2.4565,-2.4577,-2.4763,-2.4702,-2.4915,-2.4846,-2.4745,-2.4842,-2.484,-2.4994,-2.5014,-2.5066,-2.5241,-2.5253,-2.5162,-2.5169,-2.5174,-2.5178,0,0,0,0,0,0,0,-2.4255,-2.4287,-2.4592,-2.4559,-2.4572,-2.4595,-2.4623,-2.4743,-2.4874,-2.4754,-2.4761,-2.479,-2.4999,-2.5055,-2.5073,-2.5257,-2.5162,-2.5172,-2.518,-2.5184,-2.5532,-2.5534,0,0,0,0,0,0,-2.4227,-2.4274,-2.4584,-2.46,-2.4417,-2.4603,-2.4635,-2.4705,-2.4873,-2.4898,-2.4791,-2.4794,-2.5035,-2.5059,-2.5083,-2.5217,-2.5174,-2.5186,-2.5193,-2.553,-2.5533,-2.5535,0,0,0,0,0,0,-2.4217,-2.4254,-2.4573,-2.4439,-2.4482,-2.4612,-2.469,-2.4711,-2.4767,-2.4902,-2.4926,-2.4824,-2.5035,-2.5066,-2.5193,-2.5227,-2.5191,-2.5202,-2.5528,-2.5531,-2.5534,-2.5485,0,0,0,0,0,0,-2.4205,-2.425,-2.429,-2.4439,-2.4488,-2.4678,-2.4692,-2.4717,-2.4787,-2.4792,-2.4939,-2.4962,-2.5036,-2.5174,-2.5204,-2.5243,-2.5211,-2.5525,-2.5529,-2.5533,-2.5484,-2.5486,-2.5487,0,0,0,0,0,-2.419,-2.4266,-2.4292,-2.4329,-2.4542,-2.468,-2.4708,-2.4792,-2.479,-2.4832,-2.492,-2.4957,-2.5219,-2.5186,-2.5221,-2.5264,-2.5523,-2.5528,-2.5532,-2.5483,-2.5485,-2.5487,0,0,0,0,0,0,-2.4116,-2.4286,-2.4318,-2.4444,-2.4547,-2.4695,-2.475,-2.4792,-2.4897,-2.4898,-2.4998,-2.503,-2.5149,-2.522,-2.518,-2.5375,-2.5373,-2.5385,-2.5324,-2.5327,-2.5329,-2.5308,-2.5221,0,0,0,0,0,-2.4115,-2.4213,-2.4356,-2.4454,-2.4504,-2.4618,-2.4682,-2.4738,-2.4848,-2.4892,-2.4989,-2.5094,-2.5201,-2.5268,-2.5373,-2.5496,-2.5529,-2.5542,-2.5544,-2.5545,-2.5553,-2.5624,-2.5631,-2.555,-2.555,-2.555,0,0,-2.4112,-2.4218,-2.4273,-2.4442,-2.4528,-2.4628,-2.4654,-2.4758,-2.4832,-2.4908,-2.5033,-2.5108,-2.5232,-2.5357,-2.5417,-2.542,-2.5584,-2.5551,-2.555,-2.5559,-2.5629,-2.5637,-2.5643,-2.5553,-2.5552,-2.5552,0,0,-2.4158,-2.4248,-2.434,-2.4427,-2.4558,-2.4634,-2.4655,-2.4798,-2.4851,-2.4979,-2.5038,-2.5129,-2.5309,-2.5396,-2.5463,-2.5545,-2.5584,-2.5577,-2.5585,-2.5653,-2.5659,-2.5666,-2.5694,-2.5704,-2.5585,-2.5585,-2.5585,0,-2.4138,-2.4291,-2.4381,-2.4483,-2.4555,-2.463,-2.4724,-2.4803,-2.4961,-2.501,-2.5011,-2.5241,-2.533,-2.5476,-2.5497,-2.5549,-2.5577,-2.5559,-2.5651,-2.5659,-2.5666,-2.5694,-2.5705,-2.5584,-2.5584,-2.5584,-2.5584,0,-2.426,-2.4364,-2.4423,-2.4575,-2.4655,-2.4751,-2.4857,-2.4927,-2.4977,-2.5053,-2.5183,-2.5293,-2.5422,-2.5462,-2.5511,-2.5616,-2.5613,-2.5632,-2.5632,-2.567,-2.5698,-2.571,-2.5581,-2.5582,-2.5582,-2.5583,0,0,-2.4264,-2.4467,-2.4487,-2.4557,-2.4709,-2.4791,-2.4892,-2.502,-2.5077,-2.5185,-2.5272,-2.5425,-2.5444,-2.552,-2.5581,-2.5641,-2.5699,-2.5652,-2.5657,-2.5656,-2.582,-2.5804,-2.5815,-2.5726,-2.5729,-2.5731,-2.581,0,-2.4329,-2.4512,-2.4598,-2.4743,-2.4841,-2.4915,-2.5003,-2.5105,-2.518,-2.5274,-2.5356,-2.5463,-2.548,-2.5527,-2.5589,-2.5678,-2.5732,-2.5674,-2.5807,-2.5811,-2.5771,-2.583,-2.5813,-2.5882,-2.5821,-2.5823,-2.5825,0,-2.4428,-2.4537,-2.4691,-2.4833,-2.4877,-2.4955,-2.5079,-2.5169,-2.5287,-2.5337,-2.5424,-2.5483,-2.5592,-2.5587,-2.5739,-2.5697,-2.5757,-2.5809,-2.5814,-2.5828,-2.5818,-2.5844,-2.5906,-2.5916,-2.5843,-2.5842,-2.5841,0,-2.4414,-2.4599,-2.4716,-2.4775,-2.4943,-2.4995,-2.5068,-2.5185,-2.5257,-2.5366,-2.5414,-2.5534,-2.5599,-2.5691,-2.5781,-2.5769,-2.5925,-2.5926,-2.5969,-2.5966,-2.5996,-2.5992,-2.6066,-2.6037,-2.6037,-2.6037,-2.6037,0,-2.4477,-2.4568,-2.4713,-2.4784,-2.4889,-2.4988,-2.509,-2.5168,-2.5272,-2.536,-2.5432,-2.5513,-2.5629,-2.5725,-2.5796,-2.5911,-2.594,-2.5984,-2.6001,-2.5976,-2.597,-2.6015,-2.6012,-2.604,-2.6039,-2.6039,-2.6038,0,-2.4478,-2.4578,-2.471,-2.486,-2.4899,-2.497,-2.5098,-2.5171,-2.525,-2.5361,-2.5393,-2.5517,-2.5634,-2.5734,-2.5887,-2.5936,-2.6054,-2.6076,-2.6014,-2.6023,-2.6059,-2.6054,-2.6163,-2.6183,-2.6141,-2.6141,-2.6141,0,-2.451,-2.4582,-2.474,-2.4805,-2.4876,-2.4979,-2.5054,-2.5155,-2.5229,-2.5371,-2.5426,-2.5549,-2.5652,-2.5835,-2.5939,-2.6058,-2.6082,-2.6113,-2.61,-2.6073,-2.6081,-2.6075,-2.6083,-2.6112,-2.6112,-2.6112,-2.6112,0,-2.4556,-2.4603,-2.4707,-2.4829,-2.4916,-2.5017,-2.512,-2.5169,-2.5289,-2.5369,-2.549,-2.557,-2.5728,-2.5849,-2.5979,-2.6054,-2.6103,-2.6115,-2.6131,-2.6105,-2.6066,-2.6087,-2.6014,-2.6112,-2.6112,-2.6112,-2.6112,-2.6112,-2.4574,-2.4642,-2.4764,-2.4878,-2.4966,-2.5061,-2.5137,-2.5227,-2.5329,-2.5466,-2.552,-2.5644,-2.5762,-2.5943,-2.6018,-2.6116,-2.6124,-2.6146,-2.6152,-2.6156,-2.6152,-2.6052,-2.6141,-2.6141,-2.6141,-2.6141,-2.6141,0,-2.4623,-2.4706,-2.481,-2.4952,-2.5042,-2.5082,-2.5199,-2.5271,-2.5379,-2.5486,-2.5587,-2.5726,-2.5845,-2.5959,-2.6083,-2.6139,-2.6165,-2.6168,-2.6164,-2.6181,-2.6139,-2.6112,-2.6146,-2.6146,-2.6146,-2.6146,-2.6146,-2.6146,-2.4659,-2.4776,-2.4838,-2.5,-2.5083,-2.5205,-2.5268,-2.5356,-2.5442,-2.5595,-2.5694,-2.5768,-2.5879,-2.6012,-2.6122,-2.6153,-2.6195,-2.6192,-2.6228,-2.6186,-2.6184,-2.6182,-2.6157,-2.62,-2.62,-2.6262,-2.6263,-2.6263]},{"header":{"parameterUnit":"m.s-1","parameterCategory":1,"la1":30.2991,"la2":30.254,"lo1":-89.0895,"lo2":-89.0444,"dy":0.0017,"dx":0.0017,"nx":28,"ny":28,"refTime":"2023-10-18T03:00:00:Z","depth":0,"parameterNumber":3,"parameterNumberName":"V-component_of_WINDS"},"data":[0,0,0,0,0,0,0,0,0,0,0,0,0,0,0,0,0,0,0,0,0,0,0,0,0,0,0,0,0,0,0,0,0,0,0,0,0,0,0,0,0,0,0,0,0,0,0,0,0,0,0,0,0,0,0,0,0,0,-0.791,-0.7908,0,-0.7799,-0.7798,-0.7797,-0.7727,-0.7727,-0.7727,-0.7726,-0.7615,-0.7612,-0.761,0,0,0,0,0,0,0,0,0,0,0,0,0,-0.8061,-0.8058,-0.791,-0.7908,-0.7907,-0.7799,-0.7798,-0.7796,-0.7727,-0.7727,-0.7726,-0.7726,-0.7616,-0.7613,-0.761,0,0,0,0,0,0,0,0,0,0,0,0,0,-0.7977,-0.8057,-0.791,-0.786,-0.7854,-0.78,-0.7798,-0.7796,-0.7728,-0.7727,-0.7726,-0.7726,-0.7617,-0.7613,-0.7609,-0.7597,0,0,-0.7597,-0.7596,0,0,0,0,0,0,0,0,-0.7982,-0.7972,-0.7868,-0.7863,-0.7856,-0.7776,-0.781,-0.7729,-0.7728,-0.7776,-0.7726,-0.7725,-0.7669,-0.7661,-0.7642,-0.7592,-0.7587,-0.7597,-0.7595,-0.7593,-0.7592,0,0,0,0,0,0,0,-0.7988,-0.7976,-0.7866,-0.7867,-0.786,-0.7842,-0.783,-0.7794,-0.7727,-0.7771,-0.7766,-0.7754,-0.7666,-0.7646,-0.7639,-0.7585,-0.7597,-0.7594,-0.7591,-0.759,-0.7517,-0.7518,0,0,0,0,0,0,-0.8001,-0.7981,-0.7869,-0.7863,-0.7919,-0.784,-0.7826,-0.7803,-0.7727,-0.7715,-0.7754,-0.7751,-0.7653,-0.7643,-0.7634,-0.7614,-0.7593,-0.7589,-0.7587,-0.7517,-0.7517,-0.7518,0,0,0,0,0,0,-0.8005,-0.7992,-0.7874,-0.792,-0.7904,-0.7838,-0.7812,-0.7801,-0.778,-0.7714,-0.7702,-0.7746,-0.7652,-0.764,-0.7606,-0.7609,-0.7588,-0.7584,-0.7516,-0.7517,-0.7518,-0.7573,0,0,0,0,0,0,-0.801,-0.7994,-0.7989,-0.7921,-0.7902,-0.7848,-0.7813,-0.7799,-0.7774,-0.7768,-0.7703,-0.7692,-0.765,-0.7612,-0.7602,-0.7603,-0.7581,-0.7516,-0.7517,-0.7517,-0.7571,-0.7576,-0.758,0,0,0,0,0,-0.8015,-0.801,-0.7989,-0.7976,-0.7894,-0.7848,-0.7837,-0.7789,-0.7774,-0.7768,-0.7725,-0.7694,-0.761,-0.7609,-0.7597,-0.7597,-0.7515,-0.7516,-0.7517,-0.7569,-0.7575,-0.758,0,0,0,0,0,0,-0.8082,-0.8,-0.7976,-0.7949,-0.7906,-0.7837,-0.7828,-0.7797,-0.7758,-0.7754,-0.7696,-0.7682,-0.7654,-0.7622,-0.7623,-0.758,-0.7559,-0.7558,-0.7602,-0.7607,-0.7612,-0.762,-0.7578,0,0,0,0,0,-0.8093,-0.8062,-0.7993,-0.7975,-0.7954,-0.7895,-0.7873,-0.7839,-0.7793,-0.7774,-0.7729,-0.7686,-0.7649,-0.7626,-0.7589,-0.7565,-0.755,-0.7559,-0.7564,-0.7568,-0.7568,-0.7551,-0.7554,-0.7521,-0.7521,-0.7521,0,0,-0.8116,-0.8068,-0.8052,-0.7987,-0.795,-0.7919,-0.788,-0.785,-0.7826,-0.777,-0.7735,-0.77,-0.7647,-0.7618,-0.7603,-0.7591,-0.7573,-0.7569,-0.7573,-0.757,-0.7552,-0.7555,-0.7558,-0.7521,-0.7521,-0.7521,0,0,-0.8143,-0.8103,-0.8083,-0.8046,-0.7989,-0.7949,-0.7945,-0.7879,-0.7854,-0.7817,-0.7774,-0.7744,-0.7683,-0.7647,-0.762,-0.763,-0.7599,-0.7619,-0.7643,-0.7628,-0.763,-0.7632,-0.7635,-0.7637,-0.7619,-0.7619,-0.7619,0,-0.8179,-0.8131,-0.8077,-0.8048,-0.8021,-0.7966,-0.7945,-0.7912,-0.7847,-0.7828,-0.7815,-0.7735,-0.7696,-0.7657,-0.7659,-0.7639,-0.7631,-0.7627,-0.7634,-0.7636,-0.7637,-0.7639,-0.764,-0.7622,-0.7622,-0.7621,-0.7621,0,-0.8178,-0.8145,-0.8135,-0.8072,-0.8043,-0.8018,-0.7961,-0.7937,-0.7905,-0.7866,-0.7829,-0.7779,-0.773,-0.7718,-0.7687,-0.7674,-0.7668,-0.7645,-0.7623,-0.7644,-0.7644,-0.7645,-0.7626,-0.7625,-0.7624,-0.7623,0,0,-0.8245,-0.815,-0.8148,-0.8118,-0.805,-0.8023,-0.7995,-0.7946,-0.7927,-0.7883,-0.7858,-0.7805,-0.7783,-0.7753,-0.7717,-0.7703,-0.7713,-0.7682,-0.768,-0.7689,-0.7694,-0.7711,-0.7713,-0.7691,-0.7691,-0.7691,-0.7698,0,-0.8262,-0.8209,-0.8159,-0.8124,-0.8092,-0.8038,-0.8013,-0.7969,-0.7931,-0.7898,-0.7857,-0.782,-0.7794,-0.7775,-0.7759,-0.7715,-0.7713,-0.7714,-0.7667,-0.7666,-0.7683,-0.7714,-0.7733,-0.7742,-0.7698,-0.7698,-0.7698,0,-0.8275,-0.8231,-0.8193,-0.8126,-0.8111,-0.809,-0.8039,-0.8008,-0.7956,-0.7929,-0.7894,-0.7856,-0.7823,-0.7803,-0.7756,-0.7758,-0.7736,-0.7711,-0.771,-0.7704,-0.7684,-0.7709,-0.7744,-0.7745,-0.7698,-0.7698,-0.7698,0,-0.8328,-0.826,-0.8227,-0.8203,-0.8124,-0.811,-0.8077,-0.8024,-0.7996,-0.7952,-0.7934,-0.7887,-0.7862,-0.7826,-0.7775,-0.7765,-0.7734,-0.771,-0.771,-0.7712,-0.7707,-0.7708,-0.7739,-0.7692,-0.7692,-0.7692,-0.7692,0,-0.8352,-0.833,-0.8249,-0.823,-0.8203,-0.8145,-0.8121,-0.8082,-0.8035,-0.8006,-0.7957,-0.7932,-0.7866,-0.7832,-0.7792,-0.7759,-0.7748,-0.7725,-0.7715,-0.773,-0.7733,-0.7715,-0.7713,-0.7693,-0.7693,-0.7692,-0.7692,0,-0.8407,-0.8352,-0.8313,-0.8241,-0.8222,-0.8206,-0.8143,-0.8122,-0.808,-0.8044,-0.8032,-0.7967,-0.7924,-0.787,-0.781,-0.7783,-0.7755,-0.7739,-0.7772,-0.7766,-0.777,-0.7771,-0.7791,-0.779,-0.7744,-0.7745,-0.7745,0,-0.8427,-0.8409,-0.8333,-0.831,-0.8278,-0.8241,-0.8212,-0.8153,-0.8126,-0.8063,-0.8049,-0.8002,-0.7961,-0.7895,-0.7843,-0.7796,-0.7779,-0.7789,-0.7772,-0.7787,-0.7779,-0.7781,-0.7778,-0.7794,-0.7795,-0.7796,-0.7796,0,-0.8467,-0.844,-0.84,-0.835,-0.8317,-0.8275,-0.8231,-0.8215,-0.8147,-0.8118,-0.8073,-0.8041,-0.7979,-0.7933,-0.7879,-0.7844,-0.7809,-0.7802,-0.7799,-0.7815,-0.7835,-0.7824,-0.7785,-0.7802,-0.7801,-0.7801,-0.7801,-0.78,-0.8505,-0.8485,-0.8429,-0.8386,-0.8346,-0.8305,-0.828,-0.8234,-0.8196,-0.814,-0.8107,-0.8063,-0.8009,-0.7932,-0.7899,-0.7863,-0.785,-0.7847,-0.7846,-0.7846,-0.7851,-0.784,-0.7853,-0.7853,-0.7853,-0.7852,-0.7852,0,-0.8542,-0.8502,-0.8463,-0.8402,-0.8368,-0.8335,-0.8284,-0.8258,-0.8219,-0.8171,-0.8131,-0.8079,-0.8033,-0.7976,-0.7926,-0.7908,-0.7891,-0.7897,-0.7898,-0.7891,-0.7866,-0.7872,-0.7912,-0.7912,-0.7912,-0.7912,-0.7912,-0.7912,-0.8558,-0.8523,-0.8489,-0.8433,-0.8393,-0.8348,-0.8322,-0.8284,-0.8245,-0.8188,-0.8149,-0.8111,-0.8059,-0.8004,-0.796,-0.7944,-0.7929,-0.794,-0.792,-0.7898,-0.7893,-0.7888,-0.7894,-0.7937,-0.7937,-0.7947,-0.7948,-0.7948]}]]